ARIANE 44LP R/B, 19689

Orbit data source: Space-Track

ARIANE 44LP R/B, 19689 is space debris in HEO originally from a launch on Sun, 11 Dec 1988 UTC launched from the French Guiana (FRGUI). Debris objects in space refer to the collection of defunct objects orbiting the Earth. Examples of debris include non-operational satellites, rocket bodies, and fragments generated from explosions, collisions, or faulty payload assembly.

Loading next visibility...
Identifier
19689, 1988-109C
Orbit
HEO
Country
Flag of FRFR
Related business
Manufacturer
Ae/LesM
Mission
Spacecraft
Bus & Motor
ARIANE H10, Unknown motor
Mass
2,260 kg wet, 2,080 kg dry
Launch date (UTC)
1988-12-11 (37 years ago)
Launch vehicle
Unknown
Launch site
French Guiana (FRGUI)
Object type
Payload
Rocket body
Debris
Shape & HBR
Cyl, 7.0 m
Radar Cross Section
31.447 m², Large (>1 m²)

Expand to show TLE details & history
Last TLE update: 14 hours ago

TLE from 14 hours ago
0 ARIANE 44LP R/B
1 19689U 88109C   25251.02547841  .00000843  00000-0  38933-2 0  9998
2 19689   7.2414   1.7171 7183346 164.6480 242.0238  2.30104408271622
Epoch: 2025-09-08T00:36Z
TLE epoch observation values (Epoch: 2025-09-08T00:36:41.334Z)
Latitude
-0.0001°
Longitude
5.2965°
Altitude
31,756.129 km
Speed
2.111 km/s
True Right ascension
00h 07m 13s
True Declination
0° 00' 00"
Sunlit
Object was in daylight at epoch
Visualization orbit readout
Latitude
Unknown
Longitude
Unknown
Altitude
Unknown
Speed
Unknown
Apparent Right ascension
Unknown
Apparent Declination
Unknown
Sunlit
N/A
Visualization observer readout
Local Sidereal Time
06:56:35
Azimuth
Unknown
Elevation
Unknown
Doppler factor
Unknown
Orbital elements
Apogee altitude
35,275.631 km
Perigee altitude
449.652 km
Semi-major axis
24,240.778 km
Eccentricity
0.71833
Inclination
7.2414°
RAAN
1.7171°
Arg. of periapsis
164.648°
True anomaly
195.50099°
Mean anomaly
242.0238°
Eccentric anomaly
217.16183°
Mean motion
0.57507 °/min
Orbital period
626.01 mins
BSTAR
0.0038933
Loading maneuver chart data...
Computing Atmospheric mass density...
Loading historical data...
Loading historical data...
Loading historical data...
Loading historical data...
Loading historical data...
Loading historical data...
Loading historical data...

Documentation

Showing up to 5 results
|